Change the Weather History Date:

Monday, April 14, 2014

  Actual Average (KEWR) Record (KEWR)
Temperature  
Mean Temperature 72 °F 52 °F  
Max Temperature 81 °F 62 °F 88 °F (1941)
Min Temperature 63 °F 43 °F 26 °F (1950)
Degree Days  
Heating Degree Days 0 13  
Month to date heating degree days 213  
Since 1 July heating degree days 4557  
Cooling Degree Days 7 0  
Month to date cooling degree days 0  
Year to date cooling degree days 1  
Growing Degree Days 22 (Base 50)    
Moisture  
Dew Point 55 °F    
Average Humidity 59    
Maximum Humidity 78    
Minimum Humidity 34    
Precipitation  
Precipitation 0.00 in 0.14 in 0.90 in (1979)
Month to date precipitation 2.06  
Year to date precipitation 12.66  
Snow  
Snow 0.00 in 0.00 in 0.70 in (1950)
Month to date snowfall 0.6  
Since 1 July snowfall 28.2  
Snow Depth -    
Sea Level Pressure  
Sea Level Pressure 29.96 in    
Wind  
Wind Speed 6 mph (SW)    
Max Wind Speed 14 mph    
Max Gust Speed 24 mph    
Visibility 10 miles    
Events      
T = Trace of Precipitation, MM = Missing Value Source: NWS Daily Summary

Daily Weather History Graph

Daily Weather History Graph

Search for Another Location

Airport or City:

Trip Planner

Search our weather history database for the weather conditions in past years. The results will help you decide how hot, cold, wet, or windy it might be!

Date:

Astronomy

Apr. 14, 2014 Rise Set
Actual Time 6:19 AM EDT 7:35 PM EDT
Civil Twilight 5:51 AM EDT 8:03 PM EDT
Nautical Twilight 5:17 AM EDT 8:37 PM EDT
Astronomical Twilight 4:42 AM EDT 9:13 PM EDT
Moon 7:11 PM EDT (4/14) 5:50 AM EDT (4/14)
Length of Visible Light 14h 11m
Length of Day
13h 15m
Full, 100% of the Moon is Illuminated
Apr 14
Full
Apr 15
Full
Apr 22
Last Quarter
Apr 29
New
May 6
First Quarter

Hourly Weather History & Observations

Time (EDT) Temp. Dew Point Humidity Pressure Visibility Wind Dir Wind Speed Gust Speed Precip Events Conditions
12:15 AM 67.3 °F 55.0 °F 65% 30.03 in 10.0 mi SSW 6.9 mph - N/A   Clear
12:35 AM 67.1 °F 55.4 °F 66% 30.04 in 10.0 mi SW 3.5 mph - N/A   Clear
12:55 AM 66.7 °F 55.4 °F 67% 30.04 in 10.0 mi WSW 4.6 mph - N/A   Clear
1:15 AM 66.7 °F 55.6 °F 67% 30.04 in 10.0 mi SW 4.6 mph - N/A   Clear
1:35 AM 66.4 °F 55.9 °F 69% 30.04 in 10.0 mi WSW 6.9 mph - N/A   Clear
1:55 AM 66.2 °F 56.3 °F 70% 30.03 in 10.0 mi SW 3.5 mph - N/A   Clear
2:15 AM 65.8 °F 56.5 °F 72% 30.03 in 10.0 mi WSW 4.6 mph - N/A   Clear
2:35 AM 65.7 °F 56.8 °F 73% 30.02 in 10.0 mi WSW 3.5 mph - N/A   Clear
2:55 AM 65.5 °F 57.0 °F 74% 30.02 in 10.0 mi Calm Calm - N/A   Clear
3:15 AM 65.3 °F 57.2 °F 75% 30.02 in 10.0 mi WSW 4.6 mph - N/A   Clear
3:35 AM 64.9 °F 57.2 °F 76% 30.02 in 10.0 mi Calm Calm - N/A   Clear
3:55 AM 64.8 °F 57.2 °F 76% 30.01 in 10.0 mi Calm Calm - N/A   Clear
4:15 AM 64.8 °F 57.2 °F 76% 30.01 in 10.0 mi SW 3.5 mph - N/A   Clear
4:35 AM 64.6 °F 57.2 °F 77% 30.01 in 10.0 mi Calm Calm - N/A   Clear
4:55 AM 64.4 °F 57.2 °F 77% 30.01 in 10.0 mi Calm Calm - N/A   Clear
5:15 AM 63.9 °F 56.8 °F 78% 30.00 in 10.0 mi Calm Calm - N/A   Clear
5:35 AM 63.7 °F 56.8 °F 78% 29.99 in 10.0 mi Calm Calm - N/A   Clear
5:55 AM 63.7 °F 56.7 °F 78% 30.00 in 10.0 mi SSW 3.5 mph - N/A   Clear
6:15 AM 63.7 °F 56.7 °F 78% 30.01 in 10.0 mi SSW 4.6 mph - N/A   Clear
6:35 AM 63.5 °F 56.3 °F 77% 30.01 in 10.0 mi SSW 4.6 mph - N/A   Clear
6:55 AM 63.7 °F 55.9 °F 76% 30.01 in 10.0 mi SSW 4.6 mph - N/A   Clear
7:15 AM 64.4 °F 55.8 °F 73% 30.01 in 10.0 mi SSW 5.8 mph - N/A   Clear
7:35 AM 65.1 °F 55.9 °F 72% 30.01 in 10.0 mi SSW 6.9 mph - N/A   Clear
8:15 AM 67.1 °F 56.3 °F 68% 30.02 in 10.0 mi SW 6.9 mph - N/A   Clear
8:55 AM 67.3 °F 56.1 °F 67% 30.01 in 10.0 mi SSW 5.8 mph - N/A   Clear
9:15 AM 68.2 °F 56.3 °F 66% 30.01 in 10.0 mi SW 4.6 mph - N/A   Clear
9:35 AM 69.1 °F 56.5 °F 64% 30.01 in 10.0 mi SW 6.9 mph - N/A   Clear
9:55 AM 70.5 °F 56.8 °F 62% 30.01 in 10.0 mi SW 6.9 mph - N/A   Clear
10:35 AM 73.0 °F 57.2 °F 57% 30.01 in 10.0 mi SW 6.9 mph 18.4 mph N/A   Scattered Clouds
10:55 AM 73.4 °F 56.8 °F 56% 30.01 in 10.0 mi West 13.8 mph 17.3 mph N/A   Scattered Clouds
11:15 AM 74.3 °F 57.2 °F 55% 30.00 in 10.0 mi WSW 8.1 mph 16.1 mph N/A   Scattered Clouds
11:35 AM 76.5 °F 57.2 °F 51% 29.99 in 10.0 mi SSW 9.2 mph 16.1 mph N/A   Mostly Cloudy
11:55 AM 77.2 °F 56.1 °F 48% 29.99 in 10.0 mi SSW 12.7 mph 21.9 mph N/A   Mostly Cloudy
12:15 PM 76.6 °F 55.9 °F 49% 29.98 in 10.0 mi SW 9.2 mph 19.6 mph N/A   Mostly Cloudy
12:35 PM 76.8 °F 54.0 °F 45% 29.96 in 10.0 mi SSW 12.7 mph 21.9 mph N/A   Mostly Cloudy
12:55 PM 77.4 °F 53.8 °F 44% 29.97 in 10.0 mi WSW 10.4 mph 18.4 mph N/A   Scattered Clouds
1:15 PM 77.2 °F 54.1 °F 45% 29.96 in 10.0 mi WSW 11.5 mph 23.0 mph N/A   Scattered Clouds
1:35 PM 77.5 °F 54.0 °F 44% 29.95 in 10.0 mi SSW 12.7 mph 20.7 mph N/A   Mostly Cloudy
2:15 PM 79.0 °F 52.3 °F 39% 29.95 in 10.0 mi SW 10.4 mph 19.6 mph N/A   Scattered Clouds
2:35 PM 79.0 °F 52.5 °F 40% 29.94 in 10.0 mi WSW 11.5 mph 24.2 mph N/A   Mostly Cloudy
2:55 PM 79.2 °F 51.6 °F 38% 29.93 in 10.0 mi SSW 9.2 mph 19.6 mph N/A   Scattered Clouds
3:15 PM 79.9 °F 52.0 °F 38% 29.91 in 10.0 mi WSW 9.2 mph - N/A   Scattered Clouds
3:35 PM 81.3 °F 51.6 °F 36% 29.91 in 10.0 mi WSW 8.1 mph 16.1 mph N/A   Clear
3:55 PM 79.9 °F 50.7 °F 36% 29.90 in 10.0 mi SW 8.1 mph 19.6 mph N/A   Clear
4:15 PM 80.6 °F 50.2 °F 35% 29.89 in 10.0 mi SW 10.4 mph 18.4 mph N/A   Clear
4:35 PM 79.7 °F 49.3 °F 34% 29.89 in 10.0 mi SSW 11.5 mph 21.9 mph N/A   Clear
4:55 PM 80.1 °F 49.1 °F 34% 29.89 in 10.0 mi SSW 11.5 mph 18.4 mph N/A   Clear
5:15 PM 80.6 °F 50.4 °F 35% 29.88 in 10.0 mi WSW 6.9 mph 18.4 mph N/A   Clear
5:35 PM 79.5 °F 50.4 °F 36% 29.87 in 10.0 mi SSW 9.2 mph 18.4 mph N/A   Clear
5:55 PM 77.0 °F 53.8 °F 44% 29.87 in 10.0 mi South 12.7 mph 20.7 mph N/A   Clear
6:15 PM 75.7 °F 53.6 °F 46% 29.87 in 10.0 mi SSW 12.7 mph - N/A   Clear
6:35 PM 74.7 °F 53.6 °F 48% 29.87 in 10.0 mi South 12.7 mph - N/A   Clear
6:55 PM 73.4 °F 53.6 °F 50% 29.88 in 10.0 mi SSW 11.5 mph 18.4 mph N/A   Clear
7:15 PM 72.3 °F 53.6 °F 52% 29.89 in 10.0 mi South 13.8 mph 18.4 mph N/A   Clear
7:35 PM 71.1 °F 53.6 °F 54% 29.89 in 10.0 mi South 11.5 mph 17.3 mph N/A   Clear
7:55 PM 70.3 °F 53.6 °F 55% 29.89 in 10.0 mi South 11.5 mph 18.4 mph N/A   Clear
8:15 PM 69.8 °F 54.1 °F 57% 29.89 in 10.0 mi South 11.5 mph 16.1 mph N/A   Clear
8:35 PM 69.3 °F 54.7 °F 60% 29.89 in 10.0 mi South 10.4 mph - N/A   Clear
8:55 PM 68.9 °F 55.4 °F 62% 29.90 in 10.0 mi South 12.7 mph 17.3 mph N/A   Clear
9:15 PM 68.2 °F 55.8 °F 64% 29.90 in 10.0 mi South 12.7 mph 17.3 mph N/A   Clear
9:35 PM 68.2 °F 56.1 °F 65% 29.90 in 10.0 mi South 9.2 mph 18.4 mph N/A   Clear
9:55 PM 68.0 °F 56.3 °F 66% 29.89 in 10.0 mi South 10.4 mph - N/A   Clear
10:15 PM 68.2 °F 55.9 °F 65% 29.89 in 10.0 mi SSW 8.1 mph - N/A   Clear
10:35 PM 68.0 °F 56.3 °F 66% 29.88 in 10.0 mi SSW 11.5 mph 20.7 mph N/A   Clear
10:55 PM 67.6 °F 56.7 °F 68% 29.88 in 10.0 mi SSW 11.5 mph 16.1 mph N/A   Clear
11:15 PM 67.5 °F 57.2 °F 70% 29.88 in 10.0 mi SSW 6.9 mph - N/A   Clear
11:35 PM 66.9 °F 57.2 °F 71% 29.88 in 10.0 mi South 5.8 mph - N/A   Clear
11:55 PM 67.1 °F 57.2 °F 70% 29.87 in 10.0 mi South 10.4 mph - N/A   Clear